Weather History for K6B0 - May, 2014

Change the Weather History Date:

Friday, May 16, 2014

  Actual Average (KMPV) Record (KMPV)
Temperature  
Mean Temperature 72 °F 54 °F  
Max Temperature 74 °F 66 °F 85 °F (1991)
Min Temperature 69 °F 42 °F 30 °F (1957)
Degree Days  
Heating Degree Days 0 11  
Month to date heating degree days 218  
Since 1 July heating degree days 7922  
Cooling Degree Days 6 0  
Month to date cooling degree days 0  
Year to date cooling degree days 1  
Growing Degree Days 22 (Base 50)    
Moisture  
Dew Point 59 °F    
Average Humidity 63    
Maximum Humidity 76    
Minimum Humidity 56    
Precipitation  
Precipitation 0.00 in 0.11 in 1.32 in (2007)
Month to date precipitation 1.66  
Year to date precipitation 11.20  
Sea Level Pressure  
Sea Level Pressure 29.91 in    
Wind  
Wind Speed 12 mph (ESE)    
Max Wind Speed 20 mph    
Max Gust Speed 36 mph    
Visibility 10 miles    
Events Rain    
T = Trace of Precipitation, MM = Missing Value Source: NWS Daily Summary

Daily Weather History Graph

Daily Weather History Graph

Search for Another Location

Airport or City:

Trip Planner

Search our weather history database for the weather conditions in past years. The results will help you decide how hot, cold, wet, or windy it might be!

Date:

Astronomy

May. 16, 2014 Rise Set
Actual Time 5:25 AM EDT 8:12 PM EDT
Civil Twilight 4:51 AM EDT 8:46 PM EDT
Nautical Twilight 4:09 AM EDT 9:29 PM EDT
Astronomical Twilight 3:20 AM EDT 10:18 PM EDT
Moon 10:16 PM EDT (5/16) 7:04 AM EDT (5/16)
Length of Visible Light 15h 54m
Length of Day
14h 47m
Waning Gibbous, 95% of the Moon is Illuminated
May 16
Waning Gibbous
May 21
Last Quarter
May 28
New
Jun 5
First Quarter
Jun 13
Full

Hourly Weather History & Observations

Time (EDT) Temp. Dew Point Humidity Pressure Visibility Wind Dir Wind Speed Gust Speed Precip Events Conditions
12:15 AM 72.5 °F 60.3 °F 65% 30.05 in 10.0 mi ESE 9.2 mph 23.0 mph N/A   Overcast
12:55 AM 71.6 °F 60.4 °F 68% 30.04 in 10.0 mi ESE 11.5 mph 20.7 mph N/A   Overcast
1:15 AM 71.8 °F 60.3 °F 67% 30.03 in 10.0 mi ESE 11.5 mph 20.7 mph N/A   Overcast
1:35 AM 71.6 °F 60.3 °F 67% 30.02 in 10.0 mi ESE 8.1 mph 18.4 mph N/A   Overcast
2:15 AM 71.6 °F 60.1 °F 67% 30.01 in 10.0 mi ESE 10.4 mph 16.1 mph N/A   Overcast
2:35 AM 71.6 °F 60.1 °F 67% 30.01 in 10.0 mi ESE 10.4 mph 19.6 mph N/A   Overcast
2:55 AM 71.6 °F 60.3 °F 67% 30.00 in 10.0 mi ESE 10.4 mph 20.7 mph N/A   Overcast
3:15 AM 71.6 °F 60.1 °F 67% 30.00 in 10.0 mi ESE 10.4 mph - N/A   Overcast
3:35 AM 71.8 °F 59.9 °F 66% 29.99 in 10.0 mi ESE 12.7 mph 20.7 mph N/A   Overcast
3:55 AM 72.0 °F 59.5 °F 65% 29.99 in 10.0 mi ESE 11.5 mph 20.7 mph N/A   Overcast
4:15 AM 72.0 °F 59.4 °F 64% 29.98 in 10.0 mi East 15.0 mph 21.9 mph N/A   Overcast
4:35 AM 71.2 °F 59.5 °F 66% 29.98 in 10.0 mi ESE 15.0 mph 24.2 mph N/A   Light Drizzle
4:55 AM 71.6 °F 58.6 °F 64% 29.98 in 10.0 mi ESE 16.1 mph 23.0 mph N/A   Overcast
5:15 AM 71.4 °F 59.0 °F 65% 29.96 in 10.0 mi East 17.3 mph 32.2 mph N/A   Mostly Cloudy
5:35 AM 71.6 °F 57.9 °F 62% 29.96 in 10.0 mi East 13.8 mph 20.7 mph N/A   Overcast
5:55 AM 71.1 °F 56.5 °F 60% 29.96 in 10.0 mi ESE 13.8 mph 23.0 mph N/A   Overcast
6:15 AM 71.1 °F 56.3 °F 60% 29.96 in 10.0 mi East 12.7 mph 23.0 mph N/A   Overcast
6:35 AM 71.6 °F 55.4 °F 57% 29.95 in 10.0 mi East 12.7 mph 21.9 mph N/A   Overcast
6:55 AM 72.3 °F 55.8 °F 56% 29.95 in 10.0 mi East 6.9 mph 20.7 mph N/A   Overcast
7:15 AM 72.0 °F 55.9 °F 57% 29.95 in 10.0 mi ESE 11.5 mph 19.6 mph N/A   Mostly Cloudy
7:35 AM 73.8 °F 57.2 °F 56% 29.94 in 10.0 mi ESE 9.2 mph 23.0 mph N/A   Scattered Clouds
7:55 AM 73.2 °F 57.2 °F 57% 29.93 in 10.0 mi East 13.8 mph 20.7 mph N/A   Scattered Clouds
8:15 AM 72.7 °F 57.0 °F 58% 29.93 in 10.0 mi ESE 15.0 mph 21.9 mph N/A   Mostly Cloudy
8:35 AM 72.5 °F 56.7 °F 57% 29.93 in 10.0 mi East 17.3 mph 26.5 mph N/A   Overcast
8:55 AM 72.7 °F 57.0 °F 58% 29.93 in 10.0 mi East 13.8 mph 20.7 mph N/A   Mostly Cloudy
9:15 AM 72.7 °F 57.4 °F 59% 29.93 in 10.0 mi East 9.2 mph 23.0 mph N/A   Mostly Cloudy
9:35 AM 72.9 °F 57.9 °F 59% 29.94 in 10.0 mi East 12.7 mph 21.9 mph N/A   Overcast
9:55 AM 72.7 °F 58.1 °F 60% 29.94 in 10.0 mi East 9.2 mph 27.6 mph N/A   Overcast
10:15 AM 72.7 °F 57.9 °F 60% 29.94 in 10.0 mi East 10.4 mph 18.4 mph N/A   Overcast
10:35 AM 72.7 °F 58.3 °F 60% 29.94 in 10.0 mi ESE 10.4 mph 18.4 mph N/A   Overcast
10:55 AM 72.5 °F 58.1 °F 60% 29.93 in 10.0 mi East 8.1 mph 21.9 mph N/A   Overcast
11:15 AM 73.0 °F 58.3 °F 60% 29.93 in 10.0 mi East 13.8 mph 23.0 mph N/A   Overcast
11:35 AM 73.0 °F 58.5 °F 60% 29.93 in 10.0 mi East 9.2 mph 20.7 mph N/A   Overcast
11:55 AM 72.7 °F 58.1 °F 60% 29.93 in 10.0 mi ESE 13.8 mph 23.0 mph N/A   Overcast
12:15 PM 72.5 °F 57.9 °F 60% 29.92 in 10.0 mi ESE 12.7 mph 25.3 mph N/A   Overcast
12:35 PM 73.2 °F 58.3 °F 59% 29.92 in 10.0 mi ESE 13.8 mph 26.5 mph N/A   Overcast
12:55 PM 73.0 °F 59.0 °F 61% 29.92 in 10.0 mi ESE 15.0 mph 25.3 mph N/A   Overcast
1:15 PM 73.4 °F 59.2 °F 61% 29.91 in 10.0 mi ESE 19.6 mph 26.5 mph N/A   Overcast
1:35 PM 72.9 °F 59.2 °F 62% 29.92 in 10.0 mi ESE 16.1 mph 27.6 mph N/A   Overcast
1:55 PM 72.9 °F 59.7 °F 63% 29.91 in 10.0 mi East 15.0 mph 27.6 mph N/A   Overcast
2:15 PM 72.5 °F 60.3 °F 65% 29.91 in 10.0 mi East 12.7 mph 17.3 mph N/A   Overcast
2:35 PM 72.9 °F 60.4 °F 65% 29.90 in 10.0 mi ESE 16.1 mph 21.9 mph N/A   Overcast
2:55 PM 73.9 °F 60.1 °F 62% 29.89 in 10.0 mi ESE 16.1 mph 27.6 mph N/A   Overcast
3:15 PM 74.1 °F 59.4 °F 60% 29.88 in 10.0 mi ESE 15.0 mph 28.8 mph N/A   Overcast
3:35 PM 74.5 °F 58.5 °F 57% 29.88 in 10.0 mi ESE 19.6 mph 32.2 mph N/A   Mostly Cloudy
3:55 PM 74.3 °F 58.6 °F 58% 29.88 in 10.0 mi ESE 19.6 mph 32.2 mph N/A   Mostly Cloudy
4:15 PM 74.1 °F 58.6 °F 58% 29.87 in 10.0 mi ESE 17.3 mph 35.7 mph N/A   Mostly Cloudy
4:35 PM 73.9 °F 58.3 °F 58% 29.87 in 10.0 mi ESE 17.3 mph 27.6 mph N/A   Mostly Cloudy
4:55 PM 73.4 °F 58.6 °F 60% 29.87 in 10.0 mi ESE 19.6 mph 27.6 mph N/A Rain Light Rain
5:15 PM 72.1 °F 60.1 °F 66% 29.86 in 10.0 mi East 12.7 mph 21.9 mph N/A Rain Light Rain
5:35 PM 71.4 °F 60.1 °F 67% 29.86 in 10.0 mi East 11.5 mph 25.3 mph N/A Rain Light Rain
5:55 PM 71.1 °F 60.4 °F 69% 29.85 in 10.0 mi East 12.7 mph 23.0 mph N/A   Drizzle
6:15 PM 71.1 °F 60.4 °F 69% 29.85 in 10.0 mi East 9.2 mph 18.4 mph N/A Rain Light Rain
6:35 PM 71.1 °F 60.4 °F 69% 29.84 in 10.0 mi East 9.2 mph 19.6 mph N/A Rain Light Rain
6:55 PM 71.2 °F 60.1 °F 68% 29.85 in 10.0 mi East 11.5 mph 19.6 mph N/A   Light Drizzle
7:15 PM 69.8 °F 61.0 °F 73% 29.85 in 10.0 mi ESE 10.4 mph 20.7 mph N/A Rain Light Rain
7:35 PM 69.8 °F 61.0 °F 73% 29.85 in 10.0 mi East 10.4 mph 16.1 mph N/A   Drizzle
7:55 PM 69.1 °F 61.3 °F 76% 29.84 in 10.0 mi East 11.5 mph 23.0 mph N/A Rain Light Rain
8:15 PM 69.8 °F 60.8 °F 73% 29.84 in 10.0 mi East 11.5 mph 19.6 mph N/A Rain Light Rain
8:35 PM 70.2 °F 60.3 °F 71% 29.84 in 10.0 mi East 9.2 mph - N/A   Mostly Cloudy
8:55 PM 70.7 °F 59.9 °F 69% 29.84 in 10.0 mi ESE 8.1 mph 17.3 mph N/A   Overcast
9:15 PM 70.9 °F 59.9 °F 68% 29.82 in 10.0 mi East 8.1 mph 19.6 mph N/A   Mostly Cloudy
9:35 PM 71.1 °F 60.3 °F 69% 29.81 in 10.0 mi East 9.2 mph 21.9 mph N/A   Overcast
9:55 PM 71.2 °F 59.9 °F 67% 29.82 in 10.0 mi ESE 9.2 mph 20.7 mph N/A   Overcast
10:15 PM 72.5 °F 59.0 °F 62% 29.81 in 10.0 mi East 11.5 mph 23.0 mph N/A   Overcast
10:35 PM 72.9 °F 58.1 °F 60% 29.80 in 10.0 mi East 13.8 mph 24.2 mph N/A   Scattered Clouds
10:55 PM 72.7 °F 58.3 °F 60% 29.79 in 10.0 mi East 15.0 mph 31.1 mph N/A   Scattered Clouds
11:15 PM 72.5 °F 58.8 °F 62% 29.79 in 10.0 mi ESE 15.0 mph 25.3 mph N/A   Scattered Clouds
11:35 PM 72.9 °F 59.0 °F 62% 29.78 in 10.0 mi East 16.1 mph 28.8 mph N/A   Mostly Cloudy
11:55 PM 72.7 °F 59.4 °F 63% 29.79 in 10.0 mi ESE 17.3 mph 27.6 mph N/A   Overcast